Weather History for Kalispell, MT

Change the Weather History Date:

Sunday, June 30, 2013

  Actual Average Record
Temperature  
Mean Temperature 72 °F 61 °F  
Max Temperature 90 °F 76 °F 94 °F (2008)
Min Temperature 53 °F 46 °F 33 °F (1956)
Degree Days  
Heating Degree Days 0 5  
Month to date heating degree days 186 216  
Since 1 June heating degree days 186 216  
Since 1 July heating degree days 7452 8039  
Cooling Degree Days 7 1  
Month to date cooling degree days 19 13  
Year to date cooling degree days 19 16  
Since 1 June cooling degree days 19 13  
Growing Degree Days 22 (Base 50)    
Moisture  
Dew Point 55 °F    
Average Humidity 61    
Maximum Humidity 93    
Minimum Humidity 29    
Precipitation  
Precipitation 0.00 in 0.07 in 0.64 in (1943)
Month to date precipitation 2.71 2.56  
Year to date precipitation 9.01 9.17  
Snow  
Snow 0.00 in - - ()
Month to date snowfall 0.0  
Year to date snowfall 10.1  
Since 1 July snowfall 18.9  
Snow Depth 0.00 in    
Sea Level Pressure  
Sea Level Pressure 30.04 in    
Wind  
Wind Speed 2 mph (NW)    
Max Wind Speed 7 mph    
Max Gust Speed 10 mph    
Visibility 10 miles    
Events      
T = Trace of Precipitation, MM = Missing Value Source: NWS Daily Summary

Daily Weather History Graph

Daily Weather History Graph

Search for Another Location

Airport:

Trip Planner

Search our weather history database for the weather conditions in past years. The results will help you decide how hot, cold, wet, or windy it might be!

Date:

Astronomy

Jun. 30, 2013 Rise Set
Actual Time 5:39 AM MDT 9:41 PM MDT
Civil Twilight 4:58 AM MDT 10:22 PM MDT
Nautical Twilight 4:00 AM MDT 11:20 PM MDT
Astronomical Twilight 2:20 AM MDT 12:59 AM MDT
Moon 1:04 AM MDT (6/30) 2:39 PM MDT (6/30)
Length of Visible Light 17h 24m
Length of Day
16h 01m
Last Quarter, 45% of the Moon is Illuminated
Jun 30
Last Quarter
Jul 8
New
Jul 15
First Quarter
Jul 22
Full
Jul 29
Last Quarter

Hourly Weather History & Observations

Time (MDT) Temp. Heat Index Dew Point Humidity Pressure Visibility Wind Dir Wind Speed Gust Speed Precip Events Conditions
12:55 AM 63.0 °F - 54.0 °F 72% 30.00 in 10.0 mi Calm Calm - N/A   Clear
1:55 AM 59.0 °F - 54.0 °F 83% 30.01 in 10.0 mi Calm Calm - N/A   Clear
2:55 AM 59.0 °F - 54.0 °F 83% 30.01 in 10.0 mi Calm Calm - N/A   Clear
3:55 AM 55.9 °F - 53.1 °F 90% 30.02 in 10.0 mi Calm Calm - N/A   Clear
4:55 AM 55.0 °F - 52.0 °F 89% 30.03 in 10.0 mi Calm Calm - N/A   Clear
5:55 AM 53.1 °F - 52.0 °F 96% 30.05 in 10.0 mi Calm Calm - N/A   Partly Cloudy
6:55 AM 60.1 °F - 55.0 °F 83% 30.06 in 10.0 mi SW 3.5 mph - N/A   Scattered Clouds
7:55 AM 66.0 °F - 55.9 °F 70% 30.06 in 10.0 mi Calm Calm - N/A   Clear
8:55 AM 71.1 °F - 57.9 °F 63% 30.08 in 10.0 mi NNE 4.6 mph - N/A   Clear
9:55 AM 73.9 °F - 57.9 °F 57% 30.07 in 10.0 mi North 5.8 mph - N/A   Clear
10:55 AM 75.0 °F - 57.9 °F 55% 30.08 in 10.0 mi Calm Calm - N/A   Clear
11:55 AM 78.1 °F - 57.9 °F 50% 30.07 in 10.0 mi Calm Calm - N/A   Clear
12:55 PM 80.1 °F 80.2 °F 55.9 °F 43% 30.06 in 10.0 mi East 4.6 mph - N/A   Clear
1:55 PM 82.9 °F 82.1 °F 55.9 °F 39% 30.06 in 10.0 mi SSW 3.5 mph - N/A   Clear
2:55 PM 87.1 °F 85.7 °F 55.9 °F 35% 30.04 in 10.0 mi West 4.6 mph - N/A   Clear
3:55 PM 88.0 °F - 52.0 °F 29% 30.04 in 10.0 mi Variable 3.5 mph - N/A   Clear
4:55 PM 87.1 °F 84.9 °F 53.1 °F 31% 30.03 in 10.0 mi SE 4.6 mph - N/A   Clear
5:55 PM 88.0 °F 85.7 °F 53.1 °F 30% 30.02 in 10.0 mi East 3.5 mph - N/A   Clear
6:55 PM 89.1 °F 86.9 °F 54.0 °F 30% 30.01 in 10.0 mi Calm Calm - N/A   Clear
7:55 PM 90.0 °F 87.7 °F 54.0 °F 29% 29.99 in 10.0 mi Calm Calm - N/A   Clear
8:55 PM 84.0 °F 82.9 °F 55.0 °F 37% 29.99 in 10.0 mi Calm Calm - N/A   Clear
9:55 PM 73.9 °F - 61.0 °F 64% 30.01 in 10.0 mi Calm Calm - N/A   Clear
10:55 PM 64.9 °F - 59.0 °F 81% 30.03 in 10.0 mi NNW 3.5 mph - N/A   Clear
11:55 PM 64.0 °F - 57.9 °F 80% 30.04 in 10.0 mi WSW 3.5 mph - N/A   Clear